Location: Palomar Mountain Lodge
(33.3110°N, 116.8495°W)
Time: 06:52:58
(UTC-07:00)

Cosmos 2154 Rocket - Pass Details

Date: 12 July 2018
Orbit: 966 x 996 km, 82.9° (Epoch: 22 July)

Event Time Altitude Azimuth Distance (km) Brightness Sun altitude
Rises 21:54:59 0° 356° (N) 3,704 7.8 -20.4°
Reaches altitude 10° 21:57:33 10° 359° (N) 2,748 7.0 -20.8°
Maximum altitude 22:03:50 71° 83° (E) 1,033 3.9 -21.7°
Enters shadow 22:06:07 41° 155° (SSE) 1,386 4.3 -22.0°
